Le Raizet Airport, Guadeloupe

9:18 AM AST on June 23, 2018 (GMT -0400)
Le Raizet

Weather History for TFFR - September, 2017

Change the Weather History Date:

Sunday, September 24, 2017

  Actual Average Record
Temperature  
Mean Temperature 82 °F -  
Max Temperature 88 °F 86 °F 91 °F (1999)
Min Temperature 76 °F 73 °F 73 °F (2007)
Cooling Degree Days 17    
Growing Degree Days 32 (Base 50)    
Moisture  
Dew Point 77 °F    
Average Humidity 83    
Maximum Humidity 94    
Minimum Humidity 64    
Precipitation  
Precipitation 0.04 in 0.30 in - ()
Sea Level Pressure  
Sea Level Pressure 29.95 in    
Wind  
Wind Speed 7 mph ()    
Max Wind Speed 17 mph    
Max Gust Speed -    
Visibility 6.8 miles    
Events      
Averages and records for this station are not official NWS values.
T = Trace of Precipitation, MM = Missing Value Source: Averaged Metar Reports

Daily Weather History Graph

Daily Weather History Graph

Search for Another Location

Airport or City:

Astronomy

Sep. 24, 2017 Rise Set
Actual Time 5:55 AM AST 6:00 PM AST
Civil Twilight 5:33 AM AST 6:21 PM AST
Nautical Twilight 5:08 AM AST 6:46 PM AST
Astronomical Twilight 4:43 AM AST 7:11 PM AST
Moon 9:35 AM AST (9/24) 9:22 PM AST (9/24)
Length of Visible Light 12h 48m
Length of Day
12h 05m
Waxing Crescent, 19% of the Moon is Illuminated
Sep 24
Waxing Crescent
Sep 27
First Quarter
Oct 5
Full
Oct 12
Last Quarter
Oct 19
New

Hourly Weather History & Observations

Time (AST) Temp. Heat Index Dew Point Humidity Pressure Visibility Wind Dir Wind Speed Gust Speed Precip Events Conditions
12:00 AM 80.6 °F 87.1 °F 77.0 °F 89% 29.98 in - East 3.5 mph - N/A   Clear
12:30 AM 80.6 °F 87.1 °F 77.0 °F 89% 29.98 in 6.2 mi East 4.6 mph - N/A   Unknown
1:00 AM 78.8 °F - 77.0 °F 94% 29.95 in 6.2 mi East 4.6 mph - N/A   Mostly Cloudy
1:30 AM 78.8 °F - 77.0 °F 94% 29.95 in - ESE 4.6 mph - N/A   Clear
2:00 AM 78 °F - 77 °F 94% 29.95 in 16 mi SE 6.9 mph - -   Clear
2:00 AM 78.8 °F - 77.0 °F 94% 29.95 in - SE 6.9 mph - N/A   Clear
2:30 AM 78.8 °F - 77.0 °F 94% 29.92 in - ESE 4.6 mph - N/A   Clear
3:00 AM 78.8 °F - 77.0 °F 94% 29.92 in - ESE 4.6 mph - N/A   Clear
3:30 AM 78.8 °F - 77.0 °F 94% 29.92 in 6.2 mi ESE 3.5 mph - N/A   Overcast
4:00 AM 78.8 °F - 77.0 °F 94% 29.92 in - ESE 3.5 mph - N/A   Clear
4:30 AM 78.8 °F - 77.0 °F 94% 29.92 in - ESE 4.6 mph - N/A   Clear
5:00 AM 78 °F - 76 °F 91% 29.94 in 22 mi ESE 4.6 mph - -   Clear
5:00 AM 77.0 °F - 75.2 °F 94% 29.92 in - ESE 4.6 mph - N/A   Clear
5:30 AM 77.0 °F - 75.2 °F 94% 29.92 in - SE 4.6 mph - N/A   Clear
6:00 AM 77.0 °F - 75.2 °F 94% 29.92 in - ESE 4.6 mph - N/A   Clear
6:30 AM 78.8 °F - 77.0 °F 94% 29.95 in 6.2 mi ESE 3.5 mph - N/A   Partly Cloudy
7:00 AM 80.6 °F 87.1 °F 77.0 °F 89% 29.95 in - ESE 4.6 mph - N/A   Clear
7:30 AM 82.4 °F 90.9 °F 77.0 °F 84% 29.95 in - ESE 6.9 mph - N/A   Clear
8:00 AM 83 °F - 77 °F 77% 29.97 in 28 mi ESE 9.2 mph - -   Clear
8:00 AM 84.2 °F 94.1 °F 77.0 °F 79% 29.95 in 6.2 mi ESE 9.2 mph - N/A   Partly Cloudy
8:30 AM 84.2 °F 94.1 °F 77.0 °F 79% 29.98 in 6.2 mi ESE 10.4 mph - N/A   Mostly Cloudy
9:00 AM 84.2 °F 94.1 °F 77.0 °F 79% 29.98 in 6.2 mi SE 10.4 mph - N/A   Mostly Cloudy
9:30 AM 86.0 °F 96.9 °F 77.0 °F 74% 29.98 in 6.2 mi ESE 17.3 mph - N/A   Mostly Cloudy
10:00 AM 86.0 °F 95.1 °F 75.2 °F 70% 29.98 in 6.2 mi ESE 17.3 mph - N/A   Mostly Cloudy
10:30 AM 87.8 °F 97.6 °F 75.2 °F 66% 29.98 in 6.2 mi ESE 13.8 mph - N/A   Mostly Cloudy
11:00 AM 86 °F - 76 °F 66% 30.00 in 34 mi ESE 13.8 mph - -   Clear
11:00 AM 86.0 °F 96.9 °F 77.0 °F 74% 29.98 in 6.2 mi ESE 13.8 mph - N/A   Mostly Cloudy
11:30 AM 86.0 °F 95.1 °F 75.2 °F 70% 29.98 in 6.2 mi ESE 11.5 mph - N/A   Overcast
12:00 PM 87.8 °F 99.7 °F 77.0 °F 70% 29.95 in 6.2 mi SE 12.7 mph - N/A   Mostly Cloudy
12:30 PM 87.8 °F 99.7 °F 77.0 °F 70% 29.95 in 6.2 mi SSE 12.7 mph - N/A   Mostly Cloudy
1:00 PM 87.8 °F 99.7 °F 77.0 °F 70% 29.95 in 6.2 mi SE 11.5 mph - N/A   Mostly Cloudy
1:30 PM 86.0 °F 95.1 °F 75.2 °F 70% 29.92 in 6.2 mi ESE 11.5 mph - N/A   Mostly Cloudy
2:00 PM 87 °F - 77 °F 64% 29.93 in 37 mi SSE 13.8 mph - -   Clear
2:00 PM 87.8 °F 99.7 °F 77.0 °F 70% 29.92 in 6.2 mi SSE 13.8 mph - N/A   Scattered Clouds
2:30 PM 87.8 °F 97.6 °F 75.2 °F 66% 29.92 in 6.2 mi SSE 15.0 mph - N/A   Mostly Cloudy
3:00 PM 86.0 °F 96.9 °F 77.0 °F 74% 29.92 in 6.2 mi SE 12.7 mph - N/A   Mostly Cloudy
3:30 PM 86.0 °F 95.1 °F 75.2 °F 70% 29.92 in 6.2 mi SE 12.7 mph - N/A   Mostly Cloudy
4:00 PM 86.0 °F 95.1 °F 75.2 °F 70% 29.92 in 6.2 mi SSE 9.2 mph - N/A   Partly Cloudy
4:30 PM 86.0 °F 96.9 °F 77.0 °F 74% 29.92 in 6.2 mi ESE 11.5 mph - N/A   Scattered Clouds
5:00 PM 84.2 °F 94.1 °F 77.0 °F 79% 29.92 in 6.2 mi SSE 8.1 mph - N/A   Partly Cloudy
5:30 PM 84.2 °F 94.1 °F 77.0 °F 79% 29.92 in 6.2 mi SE 6.9 mph - N/A   Scattered Clouds
6:00 PM 82.4 °F 90.9 °F 77.0 °F 84% 29.92 in 6.2 mi ESE 9.2 mph - N/A   Partly Cloudy
6:30 PM 82.4 °F 90.9 °F 77.0 °F 84% 29.95 in 6.2 mi ESE 6.9 mph - N/A   Unknown
7:00 PM 82.4 °F 90.9 °F 77.0 °F 84% 29.95 in 6.2 mi ESE 6.9 mph - N/A   Scattered Clouds
7:30 PM 82.4 °F 90.9 °F 77.0 °F 84% 29.98 in 6.2 mi ESE 5.8 mph - N/A   Mostly Cloudy
8:00 PM 80 °F - 77 °F 89% 29.98 in 9 mi ESE 4.6 mph - -   Clear
8:00 PM 80.6 °F 87.1 °F 77.0 °F 89% 29.98 in 6.2 mi ESE 4.6 mph - N/A   Scattered Clouds
8:30 PM 80.6 °F 87.1 °F 77.0 °F 89% 29.98 in - Variable 3.5 mph - N/A   Clear
9:00 PM 78.8 °F - 77.0 °F 94% 29.98 in 6.2 mi ESE 3.5 mph - N/A   Unknown
9:30 PM 78.8 °F - 77.0 °F 94% 29.98 in 6.2 mi ESE 3.5 mph - N/A   Unknown
10:00 PM 78.8 °F - 77.0 °F 94% 29.98 in 6.2 mi East 3.5 mph - N/A   Unknown
10:30 PM 78.8 °F - 77.0 °F 94% 30.01 in - East 4.6 mph - N/A   Clear
11:00 PM 80 °F - 77 °F 89% 30.01 in 15 mi ENE 4.6 mph - -   Clear
11:00 PM 78.8 °F - 77.0 °F 94% 30.01 in 6.2 mi ENE 4.6 mph - N/A   Overcast
11:30 PM 78.8 °F - 77.0 °F 94% 30.01 in 6.2 mi ENE 6.9 mph - N/A   Unknown